Weather History for KVAY - June, 2013

Change the Weather History Date:

Monday, June 24, 2013

  Actual Average (KWRI) Record (KWRI)
Temperature  
Mean Temperature 79 °F -  
Max Temperature 91 °F 82 °F 97 °F (2010)
Min Temperature 68 °F 61 °F 51 °F (2007)
Cooling Degree Days 14    
Growing Degree Days 29 (Base 50)    
Moisture  
Dew Point 68 °F    
Average Humidity 76    
Maximum Humidity 97    
Minimum Humidity 47    
Precipitation  
Precipitation 0.32 in - - ()
Sea Level Pressure  
Sea Level Pressure 30.06 in    
Wind  
Wind Speed 3 mph (SW)    
Max Wind Speed 28 mph    
Max Gust Speed 37 mph    
Visibility 9 miles    
Events Rain    
Averages and records for this station are not official NWS values.
T = Trace of Precipitation, MM = Missing Value Source: NWS Daily Summary

Daily Weather History Graph

Daily Weather History Graph

Search for Another Location

Airport or City:

Trip Planner

Search our weather history database for the weather conditions in past years. The results will help you decide how hot, cold, wet, or windy it might be!

Date:

Astronomy

Jun. 24, 2013 Rise Set
Actual Time 5:31 AM EDT 8:31 PM EDT
Civil Twilight 4:58 AM EDT 9:04 PM EDT
Nautical Twilight 4:17 AM EDT 9:46 PM EDT
Astronomical Twilight 3:28 AM EDT 10:34 PM EDT
Moon 9:32 PM EDT (6/24) 6:56 AM EDT (6/24)
Length of Visible Light 16h 05m
Length of Day
15h 00m
Full, 98% of the Moon is Illuminated
Jun 24
Full
Jun 30
Last Quarter
Jul 8
New
Jul 15
First Quarter
Jul 22
Full

Hourly Weather History & Observations

Time (EDT) Temp. Heat Index Dew Point Humidity Pressure Visibility Wind Dir Wind Speed Gust Speed Precip Events Conditions
12:54 AM 73.0 °F - 71.1 °F 93% 30.09 in 8.0 mi Calm Calm - N/A   Clear
1:54 AM 72.0 °F - 71.1 °F 97% 30.09 in 8.0 mi Calm Calm - N/A   Clear
2:54 AM 73.0 °F - 71.1 °F 93% 30.09 in 9.0 mi SW 3.5 mph - 0.01 in   Overcast
3:54 AM 73.0 °F - 71.1 °F 93% 30.08 in 9.0 mi SW 3.5 mph - N/A   Clear
4:54 AM 72.0 °F - 70.0 °F 93% 30.08 in 6.0 mi Calm Calm - N/A   Clear
5:54 AM 72.0 °F - 70.0 °F 93% 30.08 in 6.0 mi Calm Calm - N/A   Clear
6:31 AM 73.4 °F - 71.6 °F 94% 30.09 in 8.0 mi Calm Calm - N/A   Partly Cloudy
6:54 AM 73.0 °F - 71.1 °F 93% 30.09 in 9.0 mi SW 3.5 mph - N/A   Partly Cloudy
7:54 AM 75.9 °F - 72.0 °F 87% 30.09 in 10.0 mi WSW 5.8 mph - N/A   Partly Cloudy
8:54 AM 78.1 °F - 72.0 °F 81% 30.10 in 10.0 mi West 6.9 mph - N/A   Clear
9:54 AM 81.0 °F 85.2 °F 72.0 °F 74% 30.09 in 10.0 mi SW 4.6 mph - N/A   Clear
10:54 AM 84.9 °F 90.7 °F 72.0 °F 65% 30.09 in 10.0 mi SW 3.5 mph - N/A   Clear
11:54 AM 88.0 °F 93.8 °F 71.1 °F 57% 30.08 in 10.0 mi West 5.8 mph - N/A   Clear
12:54 PM 89.1 °F 92.9 °F 68.0 °F 50% 30.07 in 10.0 mi West 6.9 mph - N/A   Clear
1:54 PM 90.0 °F 94.5 °F 69.1 °F 50% 30.04 in 10.0 mi Variable 4.6 mph - N/A   Partly Cloudy
2:54 PM 89.1 °F 93.7 °F 69.1 °F 52% 30.02 in 10.0 mi SW 8.1 mph - N/A   Partly Cloudy
3:54 PM 80.1 °F 80.6 °F 57.9 °F 47% 30.02 in 10.0 mi SW 11.5 mph 20.7 mph 0.00 in Rain Light Rain
4:54 PM 81.0 °F 83.0 °F 66.0 °F 60% 30.02 in 10.0 mi Variable 5.8 mph - 0.00 in   Clear
5:54 PM 81.0 °F 83.0 °F 66.0 °F 60% 30.01 in 10.0 mi SSE 4.6 mph - N/A   Clear
6:42 PM 82.4 °F 83.9 °F 64.4 °F 54% 30.01 in 10.0 mi Calm Calm - N/A   Partly Cloudy
6:54 PM 81.0 °F 82.7 °F 64.9 °F 58% 30.01 in 10.0 mi Calm Calm - N/A   Partly Cloudy
7:54 PM 79.0 °F - 66.0 °F 64% 30.02 in 10.0 mi Calm Calm - N/A   Mostly Cloudy
8:23 PM 73.4 °F - 66.2 °F 78% 30.06 in 1.5 mi West 27.6 mph 36.8 mph 0.10 in Rain Heavy Rain
8:25 PM 71.6 °F - 64.4 °F 78% 30.06 in 0.8 mi WSW 21.9 mph 36.8 mph 0.18 in Rain Heavy Rain
8:54 PM 70.0 °F - 66.0 °F 87% 30.04 in 9.0 mi Variable 5.8 mph - 0.28 in Rain Light Rain
9:54 PM 68.0 °F - 64.9 °F 90% 30.02 in 10.0 mi Calm Calm - 0.03 in   Clear
10:54 PM 68.0 °F - 66.0 °F 93% 30.01 in 10.0 mi Calm Calm - N/A   Unknown
11:54 PM 68.0 °F - 66.0 °F 93% 30.02 in 9.0 mi Calm Calm - N/A   Clear